Zurück zum Katalog

STARLINK-37795

AktivKommunikationSSO
NORAD 69311·PAYLOAD·🇺🇸 United States

Gestartet May 30, 2026 von Vandenberg Space Force Base

Loading…

Nächste Überflüge (nächste 24 Stunden)

TLE

AktuellSource: CelesTrak SupGP

Epoche: Sep 14, 2026, 22:55 UTC

1 69311C 26119R   26257.95534722  .00039939  00000+0  12399-2 0  2573
2 69311  97.2829 282.7983 0001143  93.3986 334.5246 15.33416436    19

Verfolge STARLINK-37795 in Echtzeit mit AllMySat

Download on the App Store